Regional Weather Roundup
Issued by NWS State College, PA

Home | Current Version | Previous Version | Graphics & Text | Print | Product List | Glossary On
Versions: 1 2 3 4 5 6 7 8 9 10 11 12 13 14 15 16 17 18 19 20 21 22 23 24 25 26 27 28 29 30 31 32 33 34 35 36 37 38 39 40 41 42 43 44 45 46 47 48 49 50
401
ASUS41 KCTP 041803
RWRCTP

REGIONAL WEATHER ROUNDUP
NATIONAL WEATHER SERVICE STATE COLLEGE PA
100 PM EST SUN DEC 04 2016

Note: "fair" indicates few or no clouds below 12,000 feet with no
significant weather and/or obstructions to visibility.

* = STATION THAT DOES NOT REPORT PRECIPITATION /E.G. RAIN...SNOW...ETC/
    THUNDER OR FOG.

PAZ002>004-007>009-013>016-020>023-029>032-041900-
WESTERN PENNSYLVANIA

CITY           SKY/WX    TMP DP  RH WIND       PRES   REMARKS
ERIE           CLOUDY    42  32  67 S6        30.17F
MEADVILLE      CLOUDY    38  28  67 VRB3      30.15F
FRANKLIN*        N/A     37  27  65 SE8       30.16F
NEW CASTLE     FAIR      40  29  64 SE6       30.17F
BEAVER COUNTY  NOT AVBL
BUTLER*        CLOUDY    37  28  70 E8        30.20F
PITTSBURGH INT CLOUDY    41  29  62 E10       30.15F
PITTSBURGH     MOSUNNY   39  26  59 E6        30.15F
INDIANA*       PTSUNNY   39  28  65 E7G13     30.20F
LATROBE        CLOUDY    39  27  60 E12       30.18F
WASHINGTON CO* MOSUNNY   39  27  60 E12       30.14F
$$

PAZ004>006-010>012-017>019-024>028-033>037-041-042-045-046-049>053-041900-
CENTRAL PENNSYLVANIA

CITY           SKY/WX    TMP DP  RH WIND       PRES   REMARKS
BRADFORD       CLOUDY    34  25  69 E5        30.14F
DUBOIS         CLOUDY    37  26  64 E7        30.15F
CLEARFIELD     CLOUDY    38  27  64 E6        30.17F
JOHNSTOWN      CLOUDY    36  26  67 SE5       30.13F
ALTOONA        CLOUDY    39  29  67 VRB3      30.19F
STATE COLLEGE  CLOUDY    37  28  70 CALM      30.19F
WILLIAMSPORT   PTSUNNY   45  24  43 W3        30.20F
SELINSGROVE    PTSUNNY   43  27  53 CALM      30.22F
FT INDIANTOWN  CLOUDY    44  24  45 VRB7      30.21F
CAPITAL CITY   MOSUNNY   45  25  45 VRB5      30.22F
HARRISBURG     CLOUDY    45  28  51 NW8       30.21F
YORK           CLOUDY    42  30  62 NW3       30.22F
$$

PAZ038>040-043-044-047-048-054-055-060>062-067>071-041900-
EASTERN PENNSYLVANIA

CITY           SKY/WX    TMP DP  RH WIND       PRES   REMARKS
SCRANTON       CLOUDY    42  24  49 W8        30.20F
MOUNT POCONO   SUNNY     38  20  48 NW10      30.15S
ALLENTOWN      MOSUNNY   46  24  42 VRB7      30.21F
QUAKERTOWN*    CLOUDY    45  27  49 NW5       30.21F
READING        CLOUDY    45  25  45 NW6       30.20F
LANCASTER      CLOUDY    45  30  55 NW8       30.21F
COATESVILLE    PTCLDY    43  27  52 NW8       30.21F
POTTSTOWN      CLOUDY    45  25  45 NW6       30.22F
BLUE BELL      CLOUDY    43  27  52 NW3       30.21S
DOYLESTOWN     CLOUDY    47  26  44 N8        30.20F
WILLOW GROVE   NOT AVBL
NORTH PHILA    CLOUDY    47  26  44 N13G18    30.22F
PHILADELPHIA   PTSUNNY   47  24  40 NW10      30.22F
$$




USA.gov is the U.S. government's official web portal to all federal, state and local government web resources and services.